map of KIN home
Great Circle Mapper logo
KIN - Airport
Location
City:  Kingston, Jamaica
Name:Norman Manley International Airport
ICAO / IATA:MKJP / KIN

Details
Type:Airport (Aerodrome, Airfield)
Use:Public/Civil, International (customs port of entry)
Latitude:1756'08"N (17.935667)
Longitude:7647'15"W (-76.787499)
Datum:WGS 1984
Elevation:10 ft (3 m)
Variation:7.2W (WMM2015 magnetic declination)
Runways:1
Longest:8900 × 150 ft (2713 × 45.5 m), paved

Time
Time Zone:UTC-5
Local Time:

Weather
METAR:MKJP 230100Z 11014KT 9999 FEW022 28/22 Q1013
TAF:MKJP 221645Z 2218/2318 12020KT 9999 FEW018 FEW020CB BKN032
BECMG 2301/2303 35005KT FEW024 FEW025CB
BECMG 2313/2315 13025KT

Related Locations
Nearby:
Farthest:XCH: 11891 mi / 19136 km
Christmas Island, CX

Find:

   beyond  
but within

Other Information
Maps:
NOTAMs:
Links:
Sources:

  
flag of Jamaica   

Airport Diagram

Airport diagram for KIN

Airport diagram (OBSOLETE) from NGA

Sectional Chart

Flight Planning
at skyvector.com

Satellite Image

Google Maps Satellite View

 

Copyright © 2004-2014 Karl L. Swartz. All rights reserved.
The Great Circle Mapper name and logo are trademarks of the Great Circle Mapper.
All other trademarks mentioned herein belong to their respective owners.
Please see credits for attibutions and further copyright information.

  Follow gcmap on Facebook Follow gcmap on Twitter

hCard Microformat

Geo Microformat